STARLINK-36890, 68258

Orbit data source: Space-Track

STARLINK-36890, 68258 is a payload satellite owned by SpaceX/Seattle (US) in LEO that was launched on Tue, 17 Mar 2026 UTC via an FALCON 9 launch vehicle from the Air Force Eastern Test Range (AFETR). Payload-class satellites include a variety of spacecraft equipped with specific instruments for various scientific and technological missions. These include communications satellites like Starlink; space stations such as the ISS; scientific satellites like the Hubble; Earth observation satellites from companies like Planet Labs, Umbra, and HawkEye 360; GPS; miniature CubeSats for education and research; and military/defense satellites.

Loading next visibility...
Identifier
68258, 2026-054AC
Orbit
LEO
Country
Flag of USUS
Related business
Manufacturer
SpaceX/Seattle
Mission
Operational spacecraft
Bus & Motor
STARLINK V2MO, Unknown motor
Mass
575 kg wet, ~530 kg dry
Launch date (UTC)
2026-03-17 (2 months ago)
Launch vehicle
FALCON 9
Launch site
Air Force Eastern Test Range (AFETR)
Object type
Payload
Rocket body
Debris
Shape & HBR
Unknown shape, 17.7 m
Radar Cross Section
RCS unknown

Expand to show TLE details & history
Last TLE update: 8 hours ago

TLE from 8 hours ago
0 STARLINK-36890
1 68258U 26054AC  26145.43839712  .00028226  00000-0  96084-3 0  9991
2 68258  53.1587 300.3144 0001087  90.5076 269.6050 15.30223102 10747
Epoch: 2026-05-25T10:31Z
TLE epoch observation values (Epoch: 2026-05-25T10:31:17.511Z)
Latitude
0.00005°
Longitude
-100.53471°
Altitude
476.051 km
Speed
7.629 km/s
True Right ascension
20h 01m 15s
True Declination
0° 00' 00"
Sunlit
Object was in full shadow at epoch
Visualization orbit readout
Latitude
Unknown
Longitude
Unknown
Altitude
Unknown
Speed
Unknown
Apparent Right ascension
Unknown
Apparent Declination
Unknown
Sunlit
N/A
Visualization observer readout
Local Sidereal Time
03:53:22
Azimuth
Unknown
Elevation
Unknown
Doppler factor
Unknown
Orbital elements
Apogee altitude
476.148 km
Perigee altitude
474.658 km
Semi-major axis
6,853.54 km
Eccentricity
0.00011
Inclination
53.1587°
RAAN
300.3144°
Arg. of periapsis
90.5076°
True anomaly
269.59254°
Mean anomaly
269.605°
Eccentric anomaly
269.59877°
Mean motion
3.82535 °/min
Orbital period
94.11 mins
BSTAR
0.00096084
Loading maneuver chart data...
Computing Atmospheric mass density...
Loading historical data...
Loading historical data...
Loading historical data...
Loading historical data...
Loading historical data...
Loading historical data...
Loading historical data...

Documentation

Showing up to 5 results
|